Regional Weather Roundup
Issued by NWS

Home | Current Version | Previous Version | Graphics & Text | Print | Product List | Glossary On
Versions: 1 2 3 4 5 6 7 8 9 10 11 12 13 14 15 16 17 18 19 20 21 22 23 24 25 26 27 28 29 30 31 32 33 34 35 36 37 38 39 40 41 42 43 44 45 46 47 48 49 50
490
ASUS45 KBOU 150810
RWRCO

WEATHER ROUNDUP FOR COLORADO
NATIONAL WEATHER SERVICE DENVER/BOULDER CO
100 AM MST FRI DEC 15 2017

NOTE: "FAIR" INDICATES FEW OR NO CLOUDS BELOW 12000 FEET WITH NO
SIGNIFICANT WEATHER AND/OR OBSTRUCTIONS TO VISIBILITY.

COZ001>005-013-030-031-150900-
...NORTHWEST COLORADO...

CITY           SKY/WX    TMP DP  RH WIND       PRES   REMARKS
CRAIG          FAIR       3  -3  76 CALM      30.36S
HAYDEN         FAIR      17  10  74 E10       30.35S WCI   5
MEEKER         FAIR      12   7  80 NE3       30.35F
RABBIT EARS PA FAIR      12  10  92 W9G17     30.24F WCI   0
STEAMBOAT SPGS MOCLDY    11   9  89 W3        30.34S
WALDEN         FAIR       1  -2  85 SE7       30.29S WCI -11
$$

COZ006>008-011-150900-
...WEST CENTRAL VALLEYS...

CITY           SKY/WX    TMP DP  RH WIND       PRES   REMARKS
GRAND JUNCTION FAIR      23  13  65 SE10      30.37S WCI  12
MONTROSE       FAIR      19  13  77 SE7       30.39F WCI  10
EAGLE          FAIR       9   4  80 CALM      30.41F
RIFLE          FAIR      17   8  67 CALM      30.39F
DELTA          FAIR      22   7  51 NE5       30.40R WCI  16
NUCLA          NOT AVBL
$$

COZ017>023-064>068-150900-
...SOUTHWEST COLORADO...

CITY           SKY/WX    TMP DP  RH WIND       PRES   REMARKS
DURANGO        FAIR      18  13  80 N5        30.29R WCI  11
CORTEZ         FAIR      16   4  59 NE12      30.31R WCI   3
PAGOSA SPRINGS FAIR      17  15  94 CALM      30.28S
TELLURIDE      FAIR      20   3  48 CALM      30.33F
WOLF CREEK PAS FAIR      14 -15  26 N10G17    30.33R WCI   1
$$

COZ009-010-012-014-032>034-037-058>063-150900-
...CENTRAL COLORADO...

CITY           SKY/WX    TMP DP  RH WIND       PRES   REMARKS
ASPEN          FAIR      14   3  61 S7        30.32F WCI   4
BUENA VISTA    FAIR      22   2  41 NW16G35   30.25F WCI   8
COPPER MTN     NOT AVBL
BERTHOUD PASS  FAIR       3  -8  60 NW25      30.19F WCI -20
COTTONWOOD PAS FAIR      27  -6  24 NW12G18   30.23F WCI  16
GUNNISON       FAIR       7   3  84 CALM      30.36S
KREMMLING      FAIR       7   1  78 CALM      30.37S
LEADVILLE      FAIR       3  -5  69 CALM      30.28F
MONARCH PASS   FAIR      10  -9  40 W17       30.36S WCI  -7
SALIDA         FAIR      17   6  62 W8        30.35F WCI   6
SUNLIGHT       FAIR      14  -4  44 W5        30.34F WCI   6
WILKERSON PASS FAIR      18  -9  29 N10G20    30.21S WCI   6
$$

COZ069>075-150900-
...SAN LUIS VALLEY/SANGRE DE CRISTO MOUNTAINS...

CITY           SKY/WX    TMP DP  RH WIND       PRES   REMARKS
ALAMOSA        FAIR       1  -2  87 W5        30.29S WCI  -9
DEL NORTE      FAIR      20   5  51 W13       30.28S WCI   8
LA VETA PASS   FAIR      14  10  85 SW18        N/A  WCI  -3
SAGUACHE       FAIR      27   9  46 N17G25    30.29F WCI  14
$$

COZ035-036-038>040-150900-
...NORTHERN COLORADO FRONT RANGE...

CITY           SKY/WX    TMP DP  RH WIND       PRES   REMARKS
DENVER INTL AP FAIR      26  13  57 SW17      30.13F WCI  13
DMNS CITY PARK NOT AVBL
AURORA         CLEAR     23  14  68 S13       30.14F WCI  11
FRONT RANGE AP FAIR      27  17  65 S15       30.14F WCI  16
ERIE MUNI ARPT FAIR      23  18  80 S7        30.18F WCI  15
BOULDER MUN AP FAIR      25  18  74 NW3       30.12F
CENTENNIAL     FAIR      24  12  60 S6        30.14F WCI  17
BROOMFIELD     FAIR      27  19  74 S3        30.13F
FORT COLLINS   FAIR      21  15  78 S6        30.13F WCI  13
LONGMONT       FAIR      21  16  83 W5        30.15F WCI  14
$$

COZ041-046-047-076>085-087-088-150900-
...PIKES PEAK/PALMER DIVIDE AND SOUTHERN FOOTHILLS...

CITY           SKY/WX    TMP DP  RH WIND       PRES   REMARKS
COLO. SPRINGS  CLOUDY    24  22  91 NW3       30.20F
A. F. ACADEMY  FRZ DRZL  16  13  88 N7        30.18F FOG     WCI   6
SCHRIEVER AFB  FAIR      22  22  97 N3        30.20F
CHEYENNE MTN   FAIR      24  12  61 CALM      30.11F
ELLICOTT       CLOUDY   N/A N/A N/A NW5       30.18F
FALCON         FOG       22  21  97 W7        30.18F VSB 1   WCI  13
FORT CARSON    FAIR      20  17  89 N10       30.18F WCI   9
LIMON          FAIR       9   7  92 N5        30.17F WCI   1
MONUMENT HILL  FAIR      19  10  68 SW10      30.17F WCI   8
CANON CITY     FAIR      32  14  47 W15G21    30.20F WCI  22
WALSENBURG     FAIR      27  18  69 W15G21    30.21F WCI  15
TRINIDAD       FAIR      21  18  88 W8        30.23F WCI  11
$$

COZ042>045-048>051-090-091-150900-
...NORTHEAST COLORADO...

CITY           SKY/WX    TMP DP  RH WIND       PRES   REMARKS
GREELEY ARPT   FAIR      13   7  77 CALM      30.15F HAZE
AKRON          FAIR      19  13  77 SW10      30.14F WCI   7
BURLINGTON     FAIR      14  12  92 W9        30.19F WCI   2
WRAY           FAIR      18  12  79 SW8       30.17F WCI   7
YUMA           FAIR      16  12  86 SW8       30.15F WCI   5
STERLING       NOT AVBL
HOLYOKE        FAIR      19  14  79 W7        30.14F WCI  10
FORT MORGAN    FAIR      15  11  83 W8        30.15F WCI   4
$$

COZ086-089-092>099-150900-
...SOUTHEAST COLORADO...

CITY           SKY/WX    TMP DP  RH WIND       PRES   REMARKS
PUEBLO         MOCLDY    20  18  92 W5        30.22F FOG     WCI  13
LA JUNTA       FAIR      21  19  92 W3        30.24F
LAMAR          FAIR      18  14  84 SW8       30.23F WCI   8
SPRINGFIELD      N/A     19  17  92 W10       30.24F WCI   7
$$




USA.gov is the U.S. government's official web portal to all federal, state and local government web resources and services.